SL-8 DEB, 22841

Orbit data source: Space-Track

SL-8 DEB, 22841 is space debris in LEO originally from a launch on Tue, 12 Feb 1991 UTC launched from the Plesetsk Missile And Space Complex (PKMTR). Debris objects in space refer to the collection of defunct objects orbiting the Earth. Examples of debris include non-operational satellites, rocket bodies, and fragments generated from explosions, collisions, or faulty payload assembly.

Loading next visibility...
Identifier
22841, 1991-009CL
Orbit
LEO
Country
Flag of CISCIS
Related business
Manufacturer
Unknown
Mission
Spacecraft
Bus & Motor
Unknown
Mass
Unknown
Launch date (UTC)
1991-02-12 (35 years ago)
Launch vehicle
Unknown
Launch site
Plesetsk Missile And Space Complex (PKMTR)
Object type
Payload
Rocket body
Debris
Shape & HBR
Unknown shape, 0.1 m
Radar Cross Section
Medium (>0.1 m² and <1 m²)

Expand to show TLE details & history
Last TLE update: 3 days ago

TLE from 3 days ago
0 SL-8 DEB
1 22841U 91009CL  26170.56073433  .00000011  00000-0  22658-3 0  9991
2 22841  74.0430  97.3860 0129824 169.7014  13.9713 12.22978962575014
Epoch: 2026-06-19T13:27Z
TLE epoch observation values (Epoch: 2026-06-19T13:27:27.446Z)
Latitude
-4.00376°
Longitude
168.87481°
Altitude
1,482.361 km
Speed
7.167 km/s
True Right ascension
18h 34m 06s
True Declination
-3° 58' 55"
Sunlit
Object was in full shadow at epoch
Visualization orbit readout
Latitude
Unknown
Longitude
Unknown
Altitude
Unknown
Speed
Unknown
Apparent Right ascension
Unknown
Apparent Declination
Unknown
Sunlit
N/A
Visualization observer readout
Local Sidereal Time
02:14:05
Azimuth
Unknown
Elevation
Unknown
Doppler factor
Unknown
Orbital elements
Apogee altitude
1,680.74 km
Perigee altitude
1,474.175 km
Semi-major axis
7,955.595 km
Eccentricity
0.01298
Inclination
74.043°
RAAN
97.386°
Arg. of periapsis
169.7014°
True anomaly
14.33622°
Mean anomaly
13.9713°
Eccentric anomaly
14.15318°
Mean motion
3.05868 °/min
Orbital period
117.7 mins
BSTAR
0.00022658
Loading maneuver chart data...
Computing Atmospheric mass density...
Loading historical data...
Loading historical data...
Loading historical data...
Loading historical data...
Loading historical data...
Loading historical data...
Loading historical data...

Documentation

Showing up to 5 results
|